This is the latest recevied weather packets stored in our database for station/object NEWPRT. If no packets are shown the sender has not sent any weather packets the latest 10 day(s).
| Time | Temp. | Humidity | Pressure | Rain* | Wind** | Luminosity | Snow |
|---|---|---|---|---|---|---|---|
| 1777842712 | - | 24% | 1012.4 hPa | 0 mm | - | - | - |
| 1777842388 | - | 24% | 1012.5 hPa | 0 mm | - | - | - |
| 1777842065 | - | 24% | 1012.4 hPa | 0 mm | - | - | - |
| 1777841743 | - | 25% | 1012.3 hPa | 0 mm | - | - | - |
| 1777841420 | - | 27% | 1012.5 hPa | 0 mm | - | - | - |
| 1777841096 | - | 28% | 1012.3 hPa | 0 mm | - | - | - |
| 1777840774 | - | 27% | 1012.3 hPa | 0 mm | - | - | - |
| 1777840450 | - | 29% | 1012.4 hPa | 0 mm | - | - | - |
| 1777840127 | - | 28% | 1012.5 hPa | 0 mm | - | - | - |
| 1777839804 | - | 30% | 1012.8 hPa | 0 mm | - | - | - |
| 1777839481 | - | 28% | 1012.7 hPa | 0 mm | - | - | - |
| 1777839158 | - | 27% | 1012.7 hPa | 0 mm | - | - | - |
| 1777838837 | - | 29% | 1012.8 hPa | 0 mm | - | - | - |
| 1777838512 | - | 28% | 1012.8 hPa | 0 mm | - | - | - |
| 1777838189 | - | 28% | 1012.9 hPa | 0 mm | - | - | - |
| 1777837866 | - | 27% | 1012.9 hPa | 0 mm | - | - | - |
| 1777837543 | - | 25% | 1012.7 hPa | 0 mm | - | - | - |
| 1777837223 | - | 24% | 1012.9 hPa | 0 mm | - | - | - |
| 1777836897 | - | 28% | 1012.8 hPa | 0 mm | - | - | - |
| 1777836574 | - | 26% | 1012.6 hPa | 0 mm | - | - | - |
| 1777836251 | - | 28% | 1012.6 hPa | 0 mm | - | - | - |
| 1777835928 | - | 29% | 1012.9 hPa | 0 mm | - | - | - |
| 1777835605 | - | 29% | 1012.7 hPa | 0 mm | - | - | - |
| 1777835282 | - | 27% | 1012.5 hPa | 0 mm | - | - | - |
| 1777834959 | - | 26% | 1012.7 hPa | 0 mm | - | - | - |
* Rain latest hour (hover to see other rain measurements)
** Current wind speed in m/s (hover to see current wind gust speed)